Time,TemperatureF,DewpointF,PressureIn,WindDirection,WindDirectionDegrees,WindSpeedMPH,WindSpeedGustMPH,Humidity,HourlyPrecipIn,Conditions,Clouds,dailyrainin,SoftwareType,DateUTC
2013-09-27 00:00:00,68.3,60.8,29.75,ESE,123,5.0,9.4,77,0.00,,CLR,0.00,VWS V14.01,2013-09-27 05:00:00,
2013-09-27 00:10:00,68.4,60.9,29.75,ESE,115,2.0,9.4,77,0.00,,CLR,0.00,VWS V14.01,2013-09-27 05:10:00,
2013-09-27 00:15:00,68.5,61.0,29.75,SE,145,8.0,11.5,77,0.00,,CLR,0.00,VWS V14.01,2013-09-27 05:15:00,
2013-09-27 00:25:00,68.6,61.1,29.75,South,170,4.0,11.5,77,0.00,,CLR,0.00,VWS V14.01,2013-09-27 05:25:00,
2013-09-27 00:35:00,68.9,61.0,29.75,ESE,118,4.0,11.5,76,0.00,,CLR,0.00,VWS V14.01,2013-09-27 05:35:00,
2013-09-27 00:40:00,69.0,61.1,29.75,SE,143,3.0,12.6,76,0.00,,CLR,0.00,VWS V14.01,2013-09-27 05:40:00,
2013-09-27 00:45:00,69.2,61.3,29.75,ESE,111,4.0,11.5,76,0.00,,CLR,0.00,VWS V14.01,2013-09-27 05:45:00,
2013-09-27 00:50:00,69.3,61.4,29.75,SE,142,4.0,11.5,76,0.00,,CLR,0.00,VWS V14.01,2013-09-27 05:50:00,
2013-09-27 00:55:00,69.4,61.5,29.75,SE,130,9.0,14.7,76,0.00,,CLR,0.00,VWS V14.01,2013-09-27 05:55:00,
2013-09-27 01:05:00,69.7,61.8,29.75,SE,146,5.0,14.7,76,0.00,,CLR,0.00,VWS V14.01,2013-09-27 06:05:00,
2013-09-27 01:15:00,69.8,61.9,29.75,SSE,157,5.0,15.7,76,0.00,,CLR,0.00,VWS V14.01,2013-09-27 06:15:00,
2013-09-27 01:25:00,69.9,62.0,29.75,SE,142,6.0,11.5,76,0.00,,CLR,0.00,VWS V14.01,2013-09-27 06:25:00,
2013-09-27 01:30:00,69.9,62.0,29.74,ESE,119,4.0,14.7,76,0.00,,CLR,0.00,VWS V14.01,2013-09-27 06:30:00,
2013-09-27 01:35:00,69.9,62.0,29.75,South,178,5.0,12.6,76,0.00,,CLR,0.00,VWS V14.01,2013-09-27 06:35:00,
2013-09-27 01:40:00,69.9,62.0,29.75,ESE,119,4.0,12.6,76,0.00,,CLR,0.00,VWS V14.01,2013-09-27 06:40:00,
2013-09-27 01:45:00,69.8,61.9,29.75,SSE,156,9.0,12.6,76,0.00,,CLR,0.00,VWS V14.01,2013-09-27 06:45:00,
2013-09-27 01:50:00,69.8,61.9,29.75,SE,133,7.0,11.5,76,0.00,,CLR,0.00,VWS V14.01,2013-09-27 06:50:00,
2013-09-27 01:55:00,69.8,61.9,29.75,SSE,165,4.0,14.7,76,0.00,,CLR,0.00,VWS V14.01,2013-09-27 06:55:00,
2013-09-27 02:00:00,69.7,61.8,29.75,SE,126,7.0,13.6,76,0.00,,CLR,0.00,VWS V14.01,2013-09-27 07:00:00,
2013-09-27 02:05:00,69.7,61.8,29.75,SSE,162,6.0,11.5,76,0.00,,CLR,0.00,VWS V14.01,2013-09-27 07:05:00,
2013-09-27 02:10:00,69.5,61.6,29.74,East,92,4.0,12.6,76,0.00,,CLR,0.00,VWS V14.01,2013-09-27 07:10:00,
2013-09-27 02:15:00,69.4,61.5,29.74,ESE,104,6.0,12.6,76,0.00,,CLR,0.00,VWS V14.01,2013-09-27 07:15:00,
2013-09-27 02:20:00,69.3,61.4,29.74,SSE,151,10.0,12.6,76,0.00,,CLR,0.00,VWS V14.01,2013-09-27 07:20:00,
2013-09-27 02:30:00,69.3,61.8,29.74,SE,134,7.0,11.5,77,0.00,,CLR,0.00,VWS V14.01,2013-09-27 07:30:00,
2013-09-27 02:35:00,69.1,61.6,29.74,SE,144,6.0,13.6,77,0.00,,CLR,0.00,VWS V14.01,2013-09-27 07:35:00,
2013-09-27 02:40:00,69.1,61.6,29.74,SE,146,6.0,10.5,77,0.00,,CLR,0.00,VWS V14.01,2013-09-27 07:40:00,
2013-09-27 02:45:00,69.0,61.5,29.74,SSE,149,1.0,12.6,77,0.00,,CLR,0.00,VWS V14.01,2013-09-27 07:45:00,
2013-09-27 02:50:00,68.9,61.4,29.73,SSE,147,1.0,13.6,77,0.00,,CLR,0.00,VWS V14.01,2013-09-27 07:50:00,
2013-09-27 03:00:00,68.6,61.1,29.73,SE,134,3.0,10.5,77,0.00,,CLR,0.00,VWS V14.01,2013-09-27 08:00:00,
2013-09-27 03:05:00,68.4,61.3,29.73,SE,132,2.0,10.5,78,0.00,,CLR,0.00,VWS V14.01,2013-09-27 08:05:00,
2013-09-27 03:15:00,68.0,60.9,29.73,East,88,3.0,9.4,78,0.00,,CLR,0.00,VWS V14.01,2013-09-27 08:15:00,
2013-09-27 03:20:00,67.7,60.6,29.72,SE,130,3.0,11.5,78,0.00,,CLR,0.00,VWS V14.01,2013-09-27 08:20:00,
2013-09-27 03:35:00,67.3,60.6,29.72,SE,131,8.0,12.6,79,0.00,,CLR,0.00,VWS V14.01,2013-09-27 08:35:00,
2013-09-27 03:40:00,67.2,60.5,29.72,ESE,115,4.0,12.6,79,0.00,,CLR,0.00,VWS V14.01,2013-09-27 08:40:00,
2013-09-27 03:45:00,67.0,60.3,29.72,SE,132,4.0,11.5,79,0.00,,CLR,0.00,VWS V14.01,2013-09-27 08:45:00,
2013-09-27 03:50:00,66.9,60.2,29.71,SSE,147,4.0,11.5,79,0.00,,CLR,0.00,VWS V14.01,2013-09-27 08:50:00,
2013-09-27 03:55:00,66.8,60.1,29.71,SE,142,8.0,12.6,79,0.00,,CLR,0.00,VWS V14.01,2013-09-27 08:55:00,
2013-09-27 04:00:00,66.7,60.0,29.71,ESE,119,8.0,14.7,79,0.00,,CLR,0.00,VWS V14.01,2013-09-27 09:00:00,
2013-09-27 04:10:00,66.7,60.0,29.71,SE,143,4.0,13.6,79,0.00,,CLR,0.00,VWS V14.01,2013-09-27 09:10:00,
2013-09-27 04:15:00,66.7,60.0,29.71,SSE,159,6.0,12.6,79,0.00,,CLR,0.00,VWS V14.01,2013-09-27 09:15:00,
2013-09-27 04:20:00,66.8,60.1,29.71,SE,126,9.0,13.6,79,0.00,,CLR,0.00,VWS V14.01,2013-09-27 09:20:00,
2013-09-27 04:25:00,66.8,60.1,29.71,SSE,152,9.0,13.6,79,0.00,,CLR,0.00,VWS V14.01,2013-09-27 09:25:00,
2013-09-27 04:35:00,66.7,60.0,29.71,SE,139,3.0,13.6,79,0.00,,CLR,0.00,VWS V14.01,2013-09-27 09:35:00,
2013-09-27 04:40:00,66.7,60.0,29.71,SE,126,7.0,12.6,79,0.00,,CLR,0.00,VWS V14.01,2013-09-27 09:40:00,
2013-09-27 04:50:00,66.7,60.0,29.71,SE,134,10.0,12.6,79,0.00,,CLR,0.00,VWS V14.01,2013-09-27 09:50:00,
2013-09-27 04:55:00,66.8,60.1,29.71,SSE,159,8.0,12.6,79,0.00,,CLR,0.00,VWS V14.01,2013-09-27 09:55:00,
2013-09-27 05:05:00,67.1,60.4,29.71,SSE,150,6.0,14.7,79,0.00,,CLR,0.00,VWS V14.01,2013-09-27 10:05:00,
2013-09-27 05:15:00,67.3,60.6,29.72,ESE,117,6.0,12.6,79,0.00,,CLR,0.00,VWS V14.01,2013-09-27 10:15:00,
2013-09-27 05:20:00,67.4,60.7,29.72,SE,132,5.0,13.6,79,0.00,,CLR,0.00,VWS V14.01,2013-09-27 10:20:00,
2013-09-27 05:25:00,67.5,60.8,29.72,SE,134,5.0,14.7,79,0.00,,CLR,0.00,VWS V14.01,2013-09-27 10:25:00,
2013-09-27 05:35:00,67.7,61.0,29.72,SE,144,8.0,13.6,79,0.00,,CLR,0.00,VWS V14.01,2013-09-27 10:35:00,
2013-09-27 05:40:00,67.7,61.0,29.73,South,170,4.0,12.6,79,0.00,,SCT120,0.00,VWS V14.01,2013-09-27 10:40:00,
2013-09-27 05:45:00,67.8,61.1,29.74,SSE,157,7.0,13.6,79,0.00,,SCT120,0.00,VWS V14.01,2013-09-27 10:45:00,
2013-09-27 05:50:00,67.8,61.1,29.74,SSW,194,6.0,9.4,79,0.00,,SCT120,0.00,VWS V14.01,2013-09-27 10:50:00,
2013-09-27 06:00:00,66.8,60.1,29.75,SSE,160,1.0,5.2,79,0.06,,SCT120,0.06,VWS V14.01,2013-09-27 11:00:00,
2013-09-27 06:10:00,65.9,59.2,29.74,SE,132,1.0,3.1,79,0.07,,-RA,0.07,VWS V14.01,2013-09-27 11:10:00,
2013-09-27 06:15:00,65.6,58.9,29.75,SSE,161,2.0,5.2,79,0.09,,-RA,0.09,VWS V14.01,2013-09-27 11:15:00,
2013-09-27 06:20:00,65.4,58.7,29.75,SSE,154,2.0,5.2,79,0.16,,-RA,0.16,VWS V14.01,2013-09-27 11:20:00,
2013-09-27 06:25:00,65.3,58.6,29.75,ESE,123,4.0,5.2,79,0.18,,-RA,0.18,VWS V14.01,2013-09-27 11:25:00,
2013-09-27 06:35:00,65.0,58.3,29.75,ESE,120,0.0,5.2,79,0.21,,-RA,0.21,VWS V14.01,2013-09-27 11:35:00,
2013-09-27 06:45:00,65.0,58.3,29.72,East,99,7.0,12.6,79,0.22,,RA,0.22,VWS V14.01,2013-09-27 11:45:00,
2013-09-27 06:50:00,65.0,58.3,29.73,ESE,123,3.0,9.4,79,0.22,,RA,0.22,VWS V14.01,2013-09-27 11:50:00,
2013-09-27 06:55:00,65.0,58.3,29.73,SE,137,5.0,9.4,79,0.22,,RA,0.22,VWS V14.01,2013-09-27 11:55:00,
2013-09-27 07:00:00,65.0,58.3,29.73,South,169,6.0,9.4,79,0.18,,RA,0.22,VWS V14.01,2013-09-27 12:00:00,
2013-09-27 07:10:00,65.0,58.3,29.73,East,85,5.0,11.5,79,0.15,,-RA,0.22,VWS V14.01,2013-09-27 12:10:00,
2013-09-27 07:20:00,65.0,58.3,29.72,SSE,165,7.0,10.5,79,0.14,,-RA,0.23,VWS V14.01,2013-09-27 12:20:00,
2013-09-27 07:25:00,65.0,58.3,29.72,SE,126,8.0,12.6,79,0.07,,BKN110,0.23,VWS V14.01,2013-09-27 12:25:00,
2013-09-27 07:30:00,65.0,58.3,29.72,SE,138,8.0,13.6,79,0.05,,BKN110,0.23,VWS V14.01,2013-09-27 12:30:00,
2013-09-27 07:40:00,65.2,58.5,29.73,SE,144,8.0,14.7,79,0.02,,BKN110,0.23,VWS V14.01,2013-09-27 12:40:00,
2013-09-27 07:50:00,65.2,58.9,29.73,ESE,103,6.0,15.7,80,0.01,,BKN120,0.23,VWS V14.01,2013-09-27 12:50:00,
2013-09-27 08:00:00,65.5,59.2,29.72,SE,130,12.0,16.8,80,0.01,,BKN120,0.23,VWS V14.01,2013-09-27 13:00:00,
2013-09-27 08:05:00,65.6,59.3,29.72,ESE,111,10.0,17.8,80,0.01,,BKN090,0.23,VWS V14.01,2013-09-27 13:05:00,
2013-09-27 08:10:00,65.7,59.4,29.72,SSE,154,16.0,16.8,80,0.01,,BKN090,0.23,VWS V14.01,2013-09-27 13:10:00,
2013-09-27 08:20:00,66.1,59.8,29.72,SSE,161,6.0,18.9,80,0.01,,BKN090,0.23,VWS V14.01,2013-09-27 13:20:00,
2013-09-27 08:30:00,66.3,60.0,29.72,ESE,121,5.0,15.7,80,0.00,,SCT110,0.23,VWS V14.01,2013-09-27 13:30:00,
2013-09-27 08:40:00,66.1,59.8,29.71,SE,127,7.0,17.8,80,0.00,,SCT110,0.23,VWS V14.01,2013-09-27 13:40:00,
2013-09-27 08:45:00,66.2,59.9,29.72,ESE,113,10.0,21.0,80,0.00,,CLR,0.23,VWS V14.01,2013-09-27 13:45:00,
2013-09-27 08:55:00,66.8,60.1,29.72,SE,140,14.0,18.9,79,0.00,,CLR,0.23,VWS V14.01,2013-09-27 13:55:00,
2013-09-27 09:00:00,67.2,60.5,29.72,SSE,159,8.0,17.8,79,0.00,,CLR,0.23,VWS V14.01,2013-09-27 14:00:00,
2013-09-27 09:15:00,67.5,61.1,29.71,SSE,155,11.0,19.9,80,0.00,,-RA,0.23,VWS V14.01,2013-09-27 14:15:00,
2013-09-27 09:25:00,66.9,60.5,29.71,SE,142,12.0,23.1,80,0.01,,SCT060,0.24,VWS V14.01,2013-09-27 14:25:00,
2013-09-27 09:30:00,66.8,60.1,29.72,SE,135,8.0,22.0,79,0.01,,SCT060,0.24,VWS V14.01,2013-09-27 14:30:00,
2013-09-27 09:35:00,67.0,60.6,29.72,East,97,8.0,23.1,80,0.01,,SCT060,0.24,VWS V14.01,2013-09-27 14:35:00,
2013-09-27 09:40:00,67.1,60.7,29.72,SSW,213,16.0,23.1,80,0.01,,SCT060,0.24,VWS V14.01,2013-09-27 14:40:00,
2013-09-27 09:45:00,67.3,60.6,29.72,SE,128,9.0,17.8,79,0.01,,CLR,0.24,VWS V14.01,2013-09-27 14:45:00,
2013-09-27 09:50:00,67.4,60.7,29.72,SSE,157,7.0,21.0,79,0.01,,CLR,0.24,VWS V14.01,2013-09-27 14:50:00,
2013-09-27 09:55:00,67.6,60.9,29.71,SE,131,15.0,26.2,79,0.01,,CLR,0.24,VWS V14.01,2013-09-27 14:55:00,
2013-09-27 10:00:00,67.9,61.5,29.70,SE,139,12.0,19.9,80,0.01,,CLR,0.24,VWS V14.01,2013-09-27 15:00:00,
2013-09-27 10:10:00,68.4,62.0,29.72,SSE,167,14.0,21.0,80,0.01,,-RA,0.24,VWS V14.01,2013-09-27 15:10:00,
2013-09-27 10:15:00,68.2,61.8,29.72,SSE,167,17.0,18.9,80,0.01,,-RA,0.24,VWS V14.01,2013-09-27 15:15:00,
2013-09-27 10:20:00,68.0,61.6,29.72,SSE,159,10.0,17.8,80,0.01,,-RA,0.24,VWS V14.01,2013-09-27 15:20:00,
2013-09-27 10:25:00,68.0,61.6,29.72,SSE,150,10.0,18.9,80,0.00,,BKN110,0.24,VWS V14.01,2013-09-27 15:25:00,
2013-09-27 10:35:00,67.7,61.3,29.72,SSE,147,12.0,17.8,80,0.00,,BKN110,0.24,VWS V14.01,2013-09-27 15:35:00,
2013-09-27 10:40:00,67.8,61.4,29.73,South,171,12.0,16.8,80,0.00,,SCT110,0.24,VWS V14.01,2013-09-27 15:40:00,
2013-09-27 10:45:00,68.0,61.6,29.72,SSE,161,11.0,19.9,80,0.00,,SCT110,0.24,VWS V14.01,2013-09-27 15:45:00,
2013-09-27 10:50:00,68.1,61.7,29.73,SSE,157,15.0,17.8,80,0.00,,SCT110,0.24,VWS V14.01,2013-09-27 15:50:00,
2013-09-27 11:00:00,68.2,61.8,29.73,South,171,11.0,21.0,80,0.00,,SCT080,0.24,VWS V14.01,2013-09-27 16:00:00,
2013-09-27 11:10:00,68.1,61.3,29.73,South,175,10.0,16.8,79,0.00,,SCT080,0.24,VWS V14.01,2013-09-27 16:10:00,
2013-09-27 11:15:00,68.0,61.6,29.72,SE,145,12.0,18.9,80,0.00,,SCT080,0.24,VWS V14.01,2013-09-27 16:15:00,
2013-09-27 11:20:00,67.9,61.5,29.71,SE,140,11.0,21.0,80,0.00,,-RA,0.24,VWS V14.01,2013-09-27 16:20:00,
2013-09-27 11:25:00,67.8,61.4,29.72,SE,133,10.0,21.0,80,0.01,,-RA,0.25,VWS V14.01,2013-09-27 16:25:00,
2013-09-27 11:30:00,67.6,60.9,29.71,SE,142,8.0,18.9,79,0.02,,-RA,0.26,VWS V14.01,2013-09-27 16:30:00,
2013-09-27 11:35:00,67.4,60.7,29.71,SE,127,8.0,18.9,79,0.02,,-RA,0.26,VWS V14.01,2013-09-27 16:35:00,
2013-09-27 11:50:00,67.1,60.7,29.68,SSE,147,6.0,19.9,80,0.03,,-RA,0.27,VWS V14.01,2013-09-27 16:50:00,
2013-09-27 11:55:00,67.2,60.8,29.70,SE,146,12.0,18.9,80,0.03,,-RA,0.27,VWS V14.01,2013-09-27 16:55:00,
2013-09-27 12:00:00,67.3,60.6,29.70,ESE,123,8.0,16.8,79,0.04,,-RA,0.28,VWS V14.01,2013-09-27 17:00:00,
2013-09-27 12:05:00,67.4,60.7,29.70,SE,137,5.0,18.9,79,0.04,,OVC120,0.28,VWS V14.01,2013-09-27 17:05:00,
2013-09-27 12:10:00,67.8,61.4,29.70,SE,141,8.0,18.9,80,0.04,,OVC120,0.28,VWS V14.01,2013-09-27 17:10:00,
2013-09-27 12:15:00,68.1,61.3,29.69,SE,132,15.0,16.8,79,0.04,,OVC120,0.28,VWS V14.01,2013-09-27 17:15:00,
2013-09-27 12:20:00,68.4,61.6,29.70,ESE,112,10.0,16.8,79,0.04,,OVC120,0.28,VWS V14.01,2013-09-27 17:20:00,
2013-09-27 12:30:00,69.2,62.4,29.69,SE,127,10.0,16.8,79,0.03,,-RA,0.28,VWS V14.01,2013-09-27 17:30:00,
2013-09-27 12:35:00,69.8,63.0,29.69,SE,133,12.0,16.8,79,0.02,,-RA,0.28,VWS V14.01,2013-09-27 17:35:00,
2013-09-27 12:40:00,70.4,63.9,29.69,SE,142,9.0,14.7,80,0.02,,-RA,0.28,VWS V14.01,2013-09-27 17:40:00,
2013-09-27 12:45:00,70.9,64.1,29.68,SE,134,11.0,22.0,79,0.01,,-RA,0.28,VWS V14.01,2013-09-27 17:45:00,
2013-09-27 12:50:00,71.2,64.4,29.67,ESE,107,11.0,17.8,79,0.01,,-RA,0.28,VWS V14.01,2013-09-27 17:50:00,
2013-09-27 12:55:00,71.8,64.9,29.68,SE,134,9.0,22.0,79,0.01,,-RA,0.28,VWS V14.01,2013-09-27 17:55:00,
2013-09-27 13:00:00,72.4,65.2,29.68,East,96,11.0,17.8,78,0.01,,-RA,0.28,VWS V14.01,2013-09-27 18:00:00,
2013-09-27 13:05:00,73.0,65.7,29.68,SE,134,14.0,21.0,78,0.00,,SCT120,0.28,VWS V14.01,2013-09-27 18:05:00,
2013-09-27 13:10:00,73.6,65.9,29.68,SE,138,13.0,21.0,77,0.00,,SCT120,0.28,VWS V14.01,2013-09-27 18:10:00,
2013-09-27 13:15:00,74.4,66.7,29.67,SSE,150,9.0,25.2,77,0.00,,SCT120,0.28,VWS V14.01,2013-09-27 18:15:00,
2013-09-27 13:20:00,75.1,66.6,29.67,SSE,161,22.0,23.1,75,0.00,,SCT120,0.28,VWS V14.01,2013-09-27 18:20:00,
2013-09-27 13:25:00,75.2,66.7,29.67,SSW,198,10.0,23.1,75,0.00,,CLR,0.28,VWS V14.01,2013-09-27 18:25:00,
2013-09-27 13:30:00,75.1,66.2,29.67,SE,142,12.0,23.1,74,0.00,,CLR,0.28,VWS V14.01,2013-09-27 18:30:00,
2013-09-27 13:35:00,75.3,66.4,29.67,South,184,8.0,21.0,74,0.00,,CLR,0.28,VWS V14.01,2013-09-27 18:35:00,
2013-09-27 13:40:00,76.2,66.9,29.66,South,170,13.0,21.0,73,0.00,,CLR,0.28,VWS V14.01,2013-09-27 18:40:00,
2013-09-27 13:50:00,76.8,66.7,29.65,SSW,196,9.0,22.0,71,0.00,,CLR,0.28,VWS V14.01,2013-09-27 18:50:00,
2013-09-27 13:55:00,76.8,67.1,29.65,SSE,155,10.0,18.9,72,0.00,,CLR,0.28,VWS V14.01,2013-09-27 18:55:00,
2013-09-27 14:05:00,77.2,65.8,29.65,SSE,148,17.0,24.1,68,0.00,,CLR,0.28,VWS V14.01,2013-09-27 19:05:00,
2013-09-27 14:10:00,77.1,66.2,29.65,SSE,163,7.0,23.1,69,0.00,,CLR,0.28,VWS V14.01,2013-09-27 19:10:00,
2013-09-27 14:15:00,76.8,66.3,29.65,South,185,4.0,18.9,70,0.00,,CLR,0.28,VWS V14.01,2013-09-27 19:15:00,
2013-09-27 14:20:00,76.7,66.2,29.65,SSE,150,10.0,15.7,70,0.00,,CLR,0.28,VWS V14.01,2013-09-27 19:20:00,
2013-09-27 14:25:00,77.1,66.6,29.64,SSE,157,8.0,19.9,70,0.00,,CLR,0.28,VWS V14.01,2013-09-27 19:25:00,
2013-09-27 14:30:00,77.4,66.4,29.65,SSE,163,14.0,19.9,69,0.00,,CLR,0.28,VWS V14.01,2013-09-27 19:30:00,
2013-09-27 14:35:00,77.5,66.1,29.65,SW,224,6.0,14.7,68,0.00,,CLR,0.28,VWS V14.01,2013-09-27 19:35:00,
2013-09-27 14:40:00,77.7,66.3,29.65,SE,146,8.0,14.7,68,0.00,,CLR,0.28,VWS V14.01,2013-09-27 19:40:00,
2013-09-27 14:50:00,78.0,66.6,29.66,South,184,3.0,15.7,68,0.00,,CLR,0.28,VWS V14.01,2013-09-27 19:50:00,
2013-09-27 14:55:00,77.9,66.5,29.66,SSW,193,10.0,10.5,68,0.00,,CLR,0.28,VWS V14.01,2013-09-27 19:55:00,
2013-09-27 15:05:00,77.9,66.9,29.65,SSW,193,2.0,8.4,69,0.00,,CLR,0.28,VWS V14.01,2013-09-27 20:05:00,
2013-09-27 15:10:00,77.9,66.5,29.65,South,186,8.0,9.4,68,0.00,,CLR,0.28,VWS V14.01,2013-09-27 20:10:00,
2013-09-27 15:20:00,78.3,66.4,29.67,South,185,12.0,12.6,67,0.00,,CLR,0.28,VWS V14.01,2013-09-27 20:20:00,
2013-09-27 15:25:00,78.4,66.1,29.66,South,184,6.0,13.6,66,0.00,,SCT120,0.28,VWS V14.01,2013-09-27 20:25:00,
2013-09-27 15:35:00,78.0,66.2,29.66,South,171,4.0,10.5,67,0.00,,SCT120,0.28,VWS V14.01,2013-09-27 20:35:00,
2013-09-27 15:40:00,78.2,65.9,29.66,SSW,206,4.0,11.5,66,0.00,,-RA,0.28,VWS V14.01,2013-09-27 20:40:00,
2013-09-27 15:45:00,78.5,66.2,29.67,South,184,5.0,12.6,66,0.00,,-RA,0.28,VWS V14.01,2013-09-27 20:45:00,
2013-09-27 15:55:00,78.3,67.3,29.67,SW,219,5.0,9.4,69,0.01,,-RA,0.29,VWS V14.01,2013-09-27 20:55:00,
2013-09-27 16:00:00,77.4,67.7,29.68,SW,223,4.0,7.3,72,0.01,,-RA,0.29,VWS V14.01,2013-09-27 21:00:00,
2013-09-27 16:05:00,76.9,67.6,29.68,SW,225,3.0,7.3,73,0.01,,-RA,0.29,VWS V14.01,2013-09-27 21:05:00,
2013-09-27 16:10:00,76.8,67.9,29.67,SW,227,1.0,6.3,74,0.01,,-RA,0.29,VWS V14.01,2013-09-27 21:10:00,
2013-09-27 16:15:00,76.8,68.3,29.66,SW,225,1.0,4.2,75,0.01,,-RA,0.29,VWS V14.01,2013-09-27 21:15:00,
2013-09-27 16:20:00,76.9,68.4,29.67,South,179,1.0,3.1,75,0.01,,-RA,0.29,VWS V14.01,2013-09-27 21:20:00,
2013-09-27 16:25:00,76.9,68.0,29.66,South,184,1.0,4.2,74,0.01,,SCT120,0.29,VWS V14.01,2013-09-27 21:25:00,
2013-09-27 16:30:00,76.8,67.9,29.66,SSW,193,2.0,3.1,74,0.01,,SCT120,0.29,VWS V14.01,2013-09-27 21:30:00,
2013-09-27 16:40:00,76.5,67.6,29.66,SSW,193,0.0,1.0,74,0.01,,SCT120,0.29,VWS V14.01,2013-09-27 21:40:00,
2013-09-27 16:45:00,76.4,67.9,29.66,SSW,193,1.0,1.0,75,0.01,,SCT120,0.29,VWS V14.01,2013-09-27 21:45:00,
2013-09-27 16:50:00,76.4,67.9,29.67,SSW,193,0.0,2.1,75,0.01,,SCT120,0.29,VWS V14.01,2013-09-27 21:50:00,
2013-09-27 17:00:00,76.6,68.1,29.67,SSW,193,0.0,1.0,75,0.00,,SCT120,0.29,VWS V14.01,2013-09-27 22:00:00,
2013-09-27 17:05:00,76.8,67.5,29.67,SSW,193,0.0,2.1,73,0.00,,CLR,0.29,VWS V14.01,2013-09-27 22:05:00,
2013-09-27 17:10:00,77.1,67.8,29.68,SSW,193,0.0,1.0,73,0.00,,CLR,0.29,VWS V14.01,2013-09-27 22:10:00,
2013-09-27 17:15:00,77.3,68.0,29.68,SSW,193,0.0,2.1,73,0.00,,CLR,0.29,VWS V14.01,2013-09-27 22:15:00,
2013-09-27 17:25:00,77.5,68.6,29.68,SSW,193,0.0,0.0,74,0.00,,CLR,0.29,VWS V14.01,2013-09-27 22:25:00,
2013-09-27 17:30:00,77.5,68.2,29.67,SSW,193,2.0,2.1,73,0.00,,CLR,0.29,VWS V14.01,2013-09-27 22:30:00,
2013-09-27 17:35:00,77.2,67.9,29.66,SE,128,3.0,4.2,73,0.00,,CLR,0.29,VWS V14.01,2013-09-27 22:35:00,
2013-09-27 17:45:00,77.1,66.6,29.66,ESE,119,2.0,7.3,70,0.00,,SCT120,0.29,VWS V14.01,2013-09-27 22:45:00,
2013-09-27 17:50:00,77.1,66.2,29.66,SSE,154,4.0,7.3,69,0.00,,SCT120,0.29,VWS V14.01,2013-09-27 22:50:00,
2013-09-27 18:00:00,77.1,65.3,29.68,South,177,1.0,5.2,67,0.00,,SCT120,0.29,VWS V14.01,2013-09-27 23:00:00,
2013-09-27 18:05:00,77.1,65.3,29.67,SSE,155,2.0,4.2,67,0.00,,CLR,0.29,VWS V14.01,2013-09-27 23:05:00,
2013-09-27 18:10:00,77.1,64.9,29.67,SE,144,0.0,5.2,66,0.00,,CLR,0.29,VWS V14.01,2013-09-27 23:10:00,
2013-09-27 18:15:00,77.1,64.9,29.67,SSE,165,2.0,5.2,66,0.00,,CLR,0.29,VWS V14.01,2013-09-27 23:15:00,
2013-09-27 18:20:00,77.1,64.9,29.67,SSE,150,3.0,5.2,66,0.00,,CLR,0.29,VWS V14.01,2013-09-27 23:20:00,
2013-09-27 18:25:00,77.3,64.6,29.67,South,169,4.0,8.4,65,0.00,,CLR,0.29,VWS V14.01,2013-09-27 23:25:00,
2013-09-27 18:30:00,77.3,64.2,29.67,SSE,162,2.0,6.3,64,0.00,,CLR,0.29,VWS V14.01,2013-09-27 23:30:00,
2013-09-27 18:45:00,77.1,63.5,29.67,South,180,1.0,5.2,63,0.00,,CLR,0.29,VWS V14.01,2013-09-27 23:45:00,
2013-09-27 18:50:00,77.0,63.5,29.67,South,170,2.0,4.2,63,0.00,,CLR,0.29,VWS V14.01,2013-09-27 23:50:00,
2013-09-27 18:55:00,76.7,63.6,29.67,South,170,0.0,2.1,64,0.00,,SCT120,0.29,VWS V14.01,2013-09-27 23:55:00,
2013-09-27 19:00:00,76.4,63.3,29.67,South,170,1.0,1.0,64,0.00,,SCT120,0.29,VWS V14.01,2013-09-28 00:00:00,
2013-09-27 19:10:00,75.7,63.5,29.67,South,171,2.0,2.1,66,0.00,,SCT120,0.29,VWS V14.01,2013-09-28 00:10:00,
2013-09-27 19:15:00,75.2,64.3,29.67,South,184,1.0,4.2,69,0.00,,SCT120,0.29,VWS V14.01,2013-09-28 00:15:00,
2013-09-27 19:20:00,74.7,64.3,29.67,South,184,0.0,2.1,70,0.00,,SCT120,0.29,VWS V14.01,2013-09-28 00:20:00,
2013-09-27 19:25:00,74.4,64.4,29.67,South,184,0.0,2.1,71,0.00,,SCT120,0.29,VWS V14.01,2013-09-28 00:25:00,
2013-09-27 19:30:00,74.1,64.1,29.67,South,184,0.0,1.0,71,0.00,,SCT120,0.29,VWS V14.01,2013-09-28 00:30:00,
2013-09-27 19:35:00,73.9,64.3,29.67,South,187,0.0,0.0,72,0.00,,SCT120,0.29,VWS V14.01,2013-09-28 00:35:00,
2013-09-27 19:45:00,73.5,64.3,29.67,South,187,0.0,0.0,73,0.00,,SCT120,0.29,VWS V14.01,2013-09-28 00:45:00,
2013-09-27 19:50:00,73.3,64.1,29.67,South,187,0.0,0.0,73,0.00,,SCT120,0.29,VWS V14.01,2013-09-28 00:50:00,
2013-09-27 19:55:00,73.0,63.5,29.67,South,187,0.0,0.0,72,0.00,,SCT120,0.29,VWS V14.01,2013-09-28 00:55:00,
2013-09-27 20:00:00,73.1,63.5,29.67,South,182,0.0,1.0,72,0.00,,SCT120,0.29,VWS V14.01,2013-09-28 01:00:00,
2013-09-27 20:05:00,73.1,63.9,29.67,South,182,0.0,1.0,73,0.00,,CLR,0.29,VWS V14.01,2013-09-28 01:05:00,
2013-09-27 20:10:00,72.7,63.9,29.67,South,182,0.0,1.0,74,0.00,,CLR,0.29,VWS V14.01,2013-09-28 01:10:00,
2013-09-27 20:20:00,71.6,63.6,29.66,ESE,111,2.0,3.1,76,0.00,,CLR,0.29,VWS V14.01,2013-09-28 01:20:00,
2013-09-27 20:25:00,71.3,63.3,29.67,ESE,113,2.0,3.1,76,0.00,,CLR,0.29,VWS V14.01,2013-09-28 01:25:00,
2013-09-27 20:30:00,71.3,63.3,29.67,ESE,113,2.0,4.2,76,0.00,,CLR,0.29,VWS V14.01,2013-09-28 01:30:00,
2013-09-27 20:35:00,71.6,63.6,29.67,SE,129,3.0,6.3,76,0.00,,CLR,0.29,VWS V14.01,2013-09-28 01:35:00,
2013-09-27 20:40:00,71.9,63.9,29.67,SE,132,3.0,7.3,76,0.00,,CLR,0.29,VWS V14.01,2013-09-28 01:40:00,
2013-09-27 20:45:00,72.2,63.8,29.67,SE,132,1.0,4.2,75,0.00,,CLR,0.29,VWS V14.01,2013-09-28 01:45:00,
2013-09-27 20:50:00,72.4,64.0,29.67,SE,139,1.0,5.2,75,0.00,,CLR,0.29,VWS V14.01,2013-09-28 01:50:00,
2013-09-27 20:55:00,72.6,63.8,29.67,ESE,121,2.0,8.4,74,0.00,,CLR,0.29,VWS V14.01,2013-09-28 01:55:00,
2013-09-27 21:05:00,73.0,64.2,29.67,South,172,5.0,8.4,74,0.00,,CLR,0.29,VWS V14.01,2013-09-28 02:05:00,
2013-09-27 21:10:00,73.0,63.8,29.66,SSE,150,2.0,7.3,73,0.00,,CLR,0.29,VWS V14.01,2013-09-28 02:10:00,
2013-09-27 21:20:00,72.9,63.8,29.66,SE,137,4.0,11.5,73,0.00,,CLR,0.29,VWS V14.01,2013-09-28 02:20:00,
2013-09-27 21:30:00,73.7,63.7,29.66,ESE,120,8.0,12.6,71,0.00,,CLR,0.29,VWS V14.01,2013-09-28 02:30:00,
2013-09-27 21:40:00,74.1,63.7,29.66,SE,138,8.0,13.6,70,0.00,,CLR,0.29,VWS V14.01,2013-09-28 02:40:00,
2013-09-27 21:45:00,74.3,63.9,29.66,SSE,151,13.0,13.6,70,0.00,,CLR,0.29,VWS V14.01,2013-09-28 02:45:00,
2013-09-27 21:55:00,74.7,63.9,29.66,SSW,198,6.0,13.6,69,0.00,,CLR,0.29,VWS V14.01,2013-09-28 02:55:00,
2013-09-27 22:00:00,74.7,63.9,29.66,SSE,158,11.0,14.7,69,0.00,,CLR,0.29,VWS V14.01,2013-09-28 03:00:00,
2013-09-27 22:05:00,74.7,63.9,29.67,SE,130,10.0,13.6,69,0.00,,CLR,0.29,VWS V14.01,2013-09-28 03:05:00,
2013-09-27 22:10:00,74.7,63.9,29.66,SE,125,7.0,15.7,69,0.00,,CLR,0.29,VWS V14.01,2013-09-28 03:10:00,
2013-09-27 22:15:00,74.7,63.9,29.66,SSE,157,6.0,14.7,69,0.00,,CLR,0.29,VWS V14.01,2013-09-28 03:15:00,
2013-09-27 22:20:00,74.7,63.9,29.66,SSE,167,9.0,12.6,69,0.00,,CLR,0.29,VWS V14.01,2013-09-28 03:20:00,
2013-09-27 22:25:00,74.8,64.0,29.66,SSE,157,8.0,13.6,69,0.00,,SCT065,0.29,VWS V14.01,2013-09-28 03:25:00,
2013-09-27 22:35:00,74.7,63.9,29.66,SSE,151,6.0,14.7,69,0.00,,SCT065,0.29,VWS V14.01,2013-09-28 03:35:00,
2013-09-27 22:40:00,74.9,64.1,29.66,SSE,161,8.0,17.8,69,0.00,,SCT065,0.29,VWS V14.01,2013-09-28 03:40:00,
2013-09-27 22:45:00,75.2,64.3,29.66,SE,138,9.0,17.8,69,0.00,,BKN065,0.29,VWS V14.01,2013-09-28 03:45:00,
2013-09-27 22:55:00,75.5,63.8,29.66,SSE,152,10.0,18.9,67,0.00,,BKN065,0.29,VWS V14.01,2013-09-28 03:55:00,
2013-09-27 23:00:00,75.6,63.9,29.66,SSE,158,14.0,16.8,67,0.00,,BKN065,0.29,VWS V14.01,2013-09-28 04:00:00,
2013-09-27 23:05:00,75.5,63.8,29.66,SE,132,12.0,16.8,67,0.00,,OVC065,0.29,VWS V14.01,2013-09-28 04:05:00,
2013-09-27 23:10:00,75.4,63.7,29.65,SSE,148,10.0,17.8,67,0.00,,OVC065,0.29,VWS V14.01,2013-09-28 04:10:00,
2013-09-27 23:15:00,75.1,63.4,29.65,South,178,6.0,16.8,67,0.00,,OVC065,0.29,VWS V14.01,2013-09-28 04:15:00,
2013-09-27 23:20:00,74.8,63.1,29.65,South,172,11.0,18.9,67,0.00,,OVC065,0.29,VWS V14.01,2013-09-28 04:20:00,
2013-09-27 23:25:00,74.7,63.5,29.65,South,182,8.0,17.8,68,0.00,,OVC065,0.29,VWS V14.01,2013-09-28 04:25:00,
2013-09-27 23:30:00,74.5,63.3,29.64,SSE,159,8.0,16.8,68,0.00,,OVC065,0.29,VWS V14.01,2013-09-28 04:30:00,
2013-09-27 23:35:00,74.4,63.2,29.64,SSE,155,7.0,16.8,68,0.00,,OVC065,0.29,VWS V14.01,2013-09-28 04:35:00,
2013-09-27 23:40:00,74.3,63.1,29.64,SE,144,9.0,17.8,68,0.00,,OVC065,0.29,VWS V14.01,2013-09-28 04:40:00,
2013-09-27 23:45:00,74.1,62.9,29.64,South,170,5.0,16.8,68,0.00,,OVC065,0.29,VWS V14.01,2013-09-28 04:45:00,
2013-09-27 23:50:00,74.0,63.2,29.64,SE,137,16.0,16.8,69,0.00,,OVC065,0.29,VWS V14.01,2013-09-28 04:50:00,
2013-09-27 23:55:00,74.0,63.2,29.64,SSE,155,21.0,22.0,69,0.00,,OVC065,0.29,VWS V14.01,2013-09-28 04:55:00,